| time (UTC) | temp C | wind direction | speed KPH | gust KPH | rain 1hr cm | rain 24hr cm | rain mn cm | humidity % | barometer mb |
| 20260507080035 | 18 | 3.2 | 8.0 | 0.00 | 0.00 | 0.00 | 99 | 1015.7 | |
| 20260507075528 | 18 | 1.6 | 4.8 | 0.00 | 0.00 | 0.00 | 99 | 1015.8 | |
| 20260507075022 | 18 | 1.6 | 6.4 | 0.00 | 0.00 | 0.00 | 99 | 1015.8 | |
| 20260507074517 | 18 | 3.2 | 9.7 | 0.00 | 0.00 | 0.00 | 99 | 1015.7 | |
| 20260507074011 | 16 | 0.0 | 1.6 | 0.00 | 0.00 | 0.00 | 99 | 1015.8 | |
| 20260507073514 | 17 | 0.0 | 1.6 | 0.00 | 0.00 | 0.00 | 99 | 1015.8 | |
| 20260507072959 | 18 | 0.0 | 0.0 | 0.00 | 0.00 | 0.00 | 99 | 1015.8 | |
| 20260507072453 | 18 | 0.0 | 0.0 | 0.00 | 0.00 | 0.00 | 99 | 1015.9 | |
| 20260507071947 | 18 | 0.0 | 0.0 | 0.00 | 0.00 | 0.00 | 99 | 1015.9 | |
| 20260507071441 | 18 | 0.0 | 0.0 | 0.00 | 0.00 | 0.00 | 99 | 1015.9 | |
| 20260507070935 | 19 | 0.0 | 0.0 | 0.00 | 0.00 | 0.00 | 99 | 1015.9 | |
| 20260507070437 | 18 | 0.0 | 0.0 | 0.00 | 0.00 | 0.00 | 99 | 1016.0 | |
| 20260507065923 | 17 | 0.0 | 0.0 | 0.00 | 0.00 | 0.00 | 99 | 1015.9 | |
| 20260507065416 | 18 | 0.0 | 0.0 | 0.00 | 0.00 | 0.00 | 99 | 1015.9 | |
| 20260507064910 | 17 | 0.0 | 0.0 | 0.00 | 0.00 | 0.00 | 99 | 1015.9 | |
| 20260507064404 | 16 | 0.0 | 0.0 | 0.00 | 0.00 | 0.00 | 99 | 1015.9 | |
| 20260507063858 | 16 | 0.0 | 0.0 | 0.00 | 0.00 | 0.00 | 99 | 1015.9 | |
| 20260507063401 | 18 | 0.0 | 0.0 | 0.00 | 0.00 | 0.00 | 99 | 1015.8 | |
| 20260507062846 | 18 | 0.0 | 0.0 | 0.00 | 0.00 | 0.00 | 99 | 1015.8 | |
| 20260507062340 | 17 | 0.0 | 0.0 | 0.00 | 0.00 | 0.00 | 99 | 1015.8 | |
| 20260507061835 | 16 | 0.0 | 0.0 | 0.00 | 0.00 | 0.00 | 99 | 1015.8 | |
| 20260507061329 | 14 | 0.0 | 0.0 | 0.00 | 0.00 | 0.00 | 99 | 1015.9 | |
| 20260507060326 | 20 | 0.0 | 0.0 | 0.00 | 0.00 | 0.00 | 99 | 1015.9 | |
| 20260507055810 | 20 | 0.0 | 0.0 | 0.00 | 0.00 | 0.00 | 99 | 1016.0 | |
| 20260507055306 | 19 | 0.0 | 0.0 | 0.00 | 0.00 | 0.00 | 99 | 1016.0 | |
| 20260507054758 | 18 | 0.0 | 0.0 | 0.00 | 0.00 | 0.00 | 99 | 1015.9 | |
| 20260507054253 | 16 | 0.0 | 0.0 | 0.00 | 0.00 | 0.00 | 99 | 1015.9 | |
| 20260507053747 | 13 | 0.0 | 0.0 | 0.00 | 0.00 | 0.00 | 99 | 1015.8 | |
| 20260507053249 | 10 | 0.0 | 0.0 | 0.00 | 0.00 | 0.00 | 99 | 1015.7 | |
| 20260507052735 | 7 | 0.0 | 0.0 | 0.00 | 0.00 | 0.00 | 99 | 1015.7 | |
| 20260507052229 | 5 | 0.0 | 0.0 | 0.00 | 0.00 | 0.00 | 99 | 1015.7 | |
| 20260507051722 | 5 | 0.0 | 0.0 | 0.00 | 0.00 | 0.00 | 99 | 1015.7 | |
| 20260507051217 | 5 | 0.0 | 0.0 | 0.00 | 0.00 | 0.00 | 99 | 1015.6 | |
| 20260507050711 | 5 | 0.0 | 0.0 | 0.00 | 0.00 | 0.00 | 99 | 1015.6 | |
| 20260507050213 | 5 | 0.0 | 0.0 | 0.00 | 0.00 | 0.00 | 99 | 1015.5 | |
| 20260507045657 | 5 | 0.0 | 0.0 | 0.00 | 0.00 | 0.00 | 99 | 1015.5 | |
| 20260507045151 | 5 | 0.0 | 0.0 | 0.00 | 0.00 | 0.00 | 99 | 1015.6 | |
| 20260507044645 | 5 | 0.0 | 0.0 | 0.00 | 0.00 | 0.00 | 99 | 1015.6 | |
| 20260507044139 | 5 | 0.0 | 0.0 | 0.00 | 0.00 | 0.00 | 99 | 1015.5 | |
| 20260507043633 | 5 | 0.0 | 0.0 | 0.00 | 0.00 | 0.00 | 99 | 1015.5 | |
| 20260507043136 | 5 | 0.0 | 0.0 | 0.00 | 0.00 | 0.00 | 99 | 1015.5 | |
| 20260507042621 | 5 | 0.0 | 0.0 | 0.00 | 0.00 | 0.00 | 99 | 1015.6 | |
| 20260507042116 | 5 | 0.0 | 0.0 | 0.00 | 0.00 | 0.00 | 99 | 1015.6 | |
| 20260507041610 | 5 | 0.0 | 0.0 | 0.00 | 0.00 | 0.00 | 99 | 1015.6 | |
| 20260507041104 | 5 | 0.0 | 0.0 | 0.00 | 0.00 | 0.00 | 99 | 1015.6 | |
| 20260507040558 | 5 | 0.0 | 0.0 | 0.00 | 0.00 | 0.00 | 99 | 1015.6 | |
| 20260507040100 | 5 | 0.0 | 0.0 | 0.00 | 0.00 | 0.00 | 99 | 1015.5 | |
| 20260507035545 | 5 | 0.0 | 0.0 | 0.00 | 0.00 | 0.00 | 99 | 1015.6 | |
| 20260507035039 | 5 | 0.0 | 0.0 | 0.00 | 0.00 | 0.00 | 99 | 1015.7 | |
| 20260507034533 | 5 | 0.0 | 0.0 | 0.00 | 0.00 | 0.00 | 99 | 1015.7 | |
| 20260507034028 | 5 | 0.0 | 0.0 | 0.00 | 0.00 | 0.00 | 99 | 1015.6 | |
| 20260507033522 | 5 | 0.0 | 0.0 | 0.00 | 0.00 | 0.00 | 99 | 1015.6 | |
| 20260507033025 | 6 | 0.0 | 0.0 | 0.00 | 0.00 | 0.00 | 99 | 1015.6 | |
| 20260507032510 | 6 | 0.0 | 0.0 | 0.00 | 0.00 | 0.00 | 99 | 1015.7 | |
| 20260507032004 | 6 | 0.0 | 0.0 | 0.00 | 0.00 | 0.00 | 99 | 1015.6 | |
| 20260507031458 | 6 | 0.0 | 0.0 | 0.00 | 0.00 | 0.00 | 99 | 1015.7 | |
| 20260507030954 | 6 | 0.0 | 0.0 | 0.00 | 0.00 | 0.00 | 99 | 1015.6 | |
| 20260507030446 | 6 | 0.0 | 0.0 | 0.00 | 0.00 | 0.00 | 99 | 1015.6 | |
| 20260507025949 | 6 | 0.0 | 0.0 | 0.00 | 0.00 | 0.00 | 99 | 1015.7 | |
| 20260507025433 | 6 | 0.0 | 0.0 | 0.00 | 0.00 | 0.00 | 99 | 1015.7 | |
| 20260507024927 | 6 | 0.0 | 0.0 | 0.00 | 0.00 | 0.00 | 99 | 1015.7 | |
| 20260507024421 | 6 | 0.0 | 0.0 | 0.00 | 0.00 | 0.00 | 99 | 1015.7 | |
| 20260507023915 | 6 | 0.0 | 0.0 | 0.00 | 0.00 | 0.00 | 99 | 1015.7 | |
| 20260507023409 | 6 | 0.0 | 0.0 | 0.00 | 0.00 | 0.00 | 99 | 1015.7 | |
| 20260507022912 | 6 | 0.0 | 0.0 | 0.00 | 0.00 | 0.00 | 99 | 1015.7 | |
| 20260507022358 | 6 | 0.0 | 0.0 | 0.00 | 0.00 | 0.00 | 99 | 1015.7 | |
| 20260507021851 | 6 | 0.0 | 0.0 | 0.00 | 0.00 | 0.00 | 99 | 1015.7 | |
| 20260507021345 | 6 | 0.0 | 0.0 | 0.00 | 0.00 | 0.00 | 99 | 1015.7 | |
| 20260507020840 | 6 | 0.0 | 0.0 | 0.00 | 0.00 | 0.00 | 99 | 1015.6 | |
| 20260507020334 | 6 | 0.0 | 0.0 | 0.00 | 0.00 | 0.00 | 99 | 1015.7 | |
| 20260507015835 | 6 | 0.0 | 0.0 | 0.00 | 0.00 | 0.00 | 99 | 1015.7 | |
| 20260507015321 | 6 | 0.0 | 0.0 | 0.00 | 0.00 | 0.00 | 99 | 1015.7 | |
| 20260507014815 | 6 | 0.0 | 0.0 | 0.00 | 0.00 | 0.00 | 99 | 1015.7 | |
| 20260507014309 | 6 | 0.0 | 0.0 | 0.00 | 0.00 | 0.00 | 99 | 1015.7 | |
| 20260507013803 | 6 | 0.0 | 0.0 | 0.00 | 0.00 | 0.00 | 99 | 1015.8 | |
| 20260507013257 | 6 | 0.0 | 0.0 | 0.00 | 0.00 | 0.00 | 99 | 1015.8 | |
| 20260507012800 | 6 | 0.0 | 0.0 | 0.00 | 0.00 | 0.00 | 99 | 1015.9 | |
| 20260507012245 | 7 | 0.0 | 0.0 | 0.00 | 0.00 | 0.00 | 99 | 1015.9 | |
| 20260507011739 | 7 | 0.0 | 0.0 | 0.00 | 0.00 | 0.00 | 99 | 1015.9 | |
| 20260507011233 | 7 | 0.0 | 0.0 | 0.00 | 0.00 | 0.00 | 99 | 1015.9 | |
| 20260507010727 | 7 | 0.0 | 0.0 | 0.00 | 0.00 | 0.00 | 99 | 1015.9 | |
| 20260507010221 | 7 | 0.0 | 0.0 | 0.00 | 0.00 | 0.00 | 99 | 1016.0 | |
| 20260507005723 | 7 | 0.0 | 0.0 | 0.00 | 0.00 | 0.00 | 99 | 1016.0 | |
| 20260507005208 | 7 | 0.0 | 0.0 | 0.00 | 0.00 | 0.00 | 99 | 1016.0 | |
| 20260507004702 | 7 | 0.0 | 0.0 | 0.00 | 0.00 | 0.00 | 99 | 1016.0 | |
| 20260507004156 | 7 | 0.0 | 0.0 | 0.00 | 0.00 | 0.00 | 99 | 1016.0 | |
| 20260507003650 | 7 | 0.0 | 0.0 | 0.00 | 0.00 | 0.00 | 99 | 1016.0 | |
| 20260507003144 | 7 | 0.0 | 0.0 | 0.00 | 0.00 | 0.00 | 99 | 1016.1 | |
| 20260507002646 | 7 | 0.0 | 0.0 | 0.00 | 0.00 | 0.00 | 99 | 1016.2 | |
| 20260507002132 | 7 | 0.0 | 0.0 | 0.00 | 0.00 | 0.00 | 99 | 1016.3 | |
| 20260507001626 | 7 | 0.0 | 0.0 | 0.00 | 0.00 | 0.00 | 99 | 1016.3 | |
| 20260507001120 | 7 | 0.0 | 0.0 | 0.00 | 0.00 | 0.00 | 99 | 1016.3 | |
| 20260507000614 | 7 | 0.0 | 0.0 | 0.00 | 0.00 | 0.00 | 99 | 1016.4 | |
| 20260507000108 | 7 | 0.0 | 0.0 | 0.00 | 0.00 | 0.00 | 99 | 1016.5 | |
| 20260506235612 | 7 | 0.0 | 0.0 | 0.00 | 0.00 | 2.31 | 99 | 1016.5 | |
| 20260506235058 | 8 | 0.0 | 0.0 | 0.00 | 0.00 | 2.31 | 99 | 1016.5 | |
| 20260506234552 | 8 | 0.0 | 0.0 | 0.00 | 0.00 | 2.31 | 99 | 1016.5 | |
| 20260506234046 | 8 | 0.0 | 0.0 | 0.00 | 0.00 | 2.31 | 99 | 1016.6 | |
| 20260506233540 | 8 | 0.0 | 0.0 | 0.00 | 0.00 | 2.31 | 99 | 1016.5 | |
| 20260506233034 | 8 | 0.0 | 0.0 | 0.00 | 0.00 | 2.31 | 99 | 1016.5 | |
| 20260506232536 | 8 | 0.0 | 0.0 | 0.00 | 0.00 | 2.31 | 99 | 1016.5 | |
| 20260506232021 | 8 | 0.0 | 0.0 | 0.00 | 0.00 | 2.31 | 99 | 1016.5 | |
| 20260506231515 | 8 | 0.0 | 0.0 | 0.00 | 0.00 | 2.31 | 99 | 1016.5 | |
| 20260506231009 | 8 | 0.0 | 0.0 | 0.00 | 0.00 | 2.31 | 99 | 1016.5 | |
| 20260506230503 | 8 | 0.0 | 0.0 | 0.00 | 0.00 | 2.31 | 99 | 1016.6 | |
| 20260506225957 | 8 | 0.0 | 0.0 | 0.00 | 0.00 | 2.31 | 99 | 1016.6 | |
| 20260506225501 | 8 | 0.0 | 0.0 | 0.00 | 0.00 | 2.31 | 99 | 1016.6 | |
| 20260506224946 | 8 | 0.0 | 0.0 | 0.00 | 0.00 | 2.31 | 99 | 1016.6 | |
| 20260506224440 | 8 | 0.0 | 0.0 | 0.00 | 0.00 | 2.31 | 99 | 1016.6 | |
| 20260506223934 | 8 | 0.0 | 0.0 | 0.00 | 0.00 | 2.31 | 99 | 1016.6 | |
| 20260506223428 | 9 | 0.0 | 0.0 | 0.00 | 0.00 | 2.31 | 99 | 1016.7 | |
| 20260506222922 | 9 | 0.0 | 0.0 | 0.00 | 0.00 | 2.31 | 99 | 1016.6 | |
| 20260506222424 | 9 | 0.0 | 0.0 | 0.00 | 0.00 | 2.31 | 99 | 1016.6 | |
| 20260506221910 | 9 | 0.0 | 0.0 | 0.00 | 0.00 | 2.31 | 99 | 1016.6 | |
| 20260506221404 | 9 | 0.0 | 0.0 | 0.00 | 0.00 | 2.31 | 99 | 1016.7 | |
| 20260506220858 | 9 | 0.0 | 0.0 | 0.00 | 0.00 | 2.31 | 99 | 1016.7 | |
| 20260506220352 | 9 | 0.0 | 0.0 | 0.00 | 0.00 | 2.31 | 99 | 1016.7 | |
| 20260506215846 | 10 | 0.0 | 0.0 | 0.00 | 0.00 | 2.31 | 99 | 1016.7 | |
| 20260506215347 | 10 | 0.0 | 0.0 | 0.00 | 0.00 | 2.31 | 99 | 1016.7 | |
| 20260506214833 | 10 | 0.0 | 0.0 | 0.00 | 0.00 | 2.31 | 99 | 1016.7 | |
| 20260506214327 | 10 | 0.0 | 0.0 | 0.00 | 0.00 | 2.31 | 99 | 1016.7 | |
| 20260506213823 | 10 | 0.0 | 0.0 | 0.00 | 0.00 | 2.31 | 99 | 1016.8 | |
| 20260506213314 | 10 | 0.0 | 0.0 | 0.00 | 0.00 | 2.31 | 99 | 1016.8 | |
| 20260506212808 | 10 | 0.0 | 0.0 | 0.00 | 0.00 | 2.31 | 99 | 1016.8 | |
| 20260506212311 | 10 | 0.0 | 0.0 | 0.00 | 0.00 | 2.31 | 99 | 1016.8 | |
| 20260506211756 | 10 | 0.0 | 0.0 | 0.00 | 0.00 | 2.31 | 99 | 1016.8 | |
| 20260506211250 | 10 | 0.0 | 0.0 | 0.00 | 0.00 | 2.31 | 99 | 1016.8 | |
| 20260506210744 | 10 | 0.0 | 1.6 | 0.00 | 0.00 | 2.31 | 99 | 1016.8 | |
| 20260506210238 | 10 | 0.0 | 1.6 | 0.00 | 0.00 | 2.31 | 99 | 1016.8 | |
| 20260506205731 | 11 | 9.7 | 27.4 | 0.00 | 0.00 | 2.31 | 99 | 1016.8 | |
| 20260506205234 | 11 | 0.0 | 0.0 | 0.00 | 0.00 | 2.31 | 99 | 1016.8 | |
| 20260506204719 | 11 | 14.5 | 83.7 | 0.00 | 0.00 | 2.31 | 99 | 1016.8 | |
| 20260506204214 | 11 | 0.0 | 0.0 | 0.00 | 0.00 | 2.31 | 99 | 1016.8 | |
| 20260506203707 | 11 | 0.0 | 0.0 | 0.00 | 0.00 | 2.31 | 99 | 1016.8 | |
| 20260506203201 | 11 | 0.0 | 0.0 | 0.00 | 0.00 | 2.31 | 99 | 1016.8 | |
| 20260506202656 | 11 | 0.0 | 0.0 | 0.00 | 0.00 | 2.31 | 99 | 1016.7 | |
| 20260506202158 | 12 | 0.0 | 0.0 | 0.00 | 0.00 | 2.31 | 99 | 1016.7 | |
| 20260506201643 | 12 | 0.0 | 0.0 | 0.00 | 0.00 | 2.31 | 99 | 1016.6 | |
| 20260506201137 | 12 | 0.0 | 0.0 | 0.00 | 0.00 | 2.31 | 99 | 1016.5 | |
| 20260506200631 | 12 | 0.0 | 0.0 | 0.00 | 0.00 | 2.31 | 99 | 1016.5 | |
| 20260506200125 | 13 | 0.0 | 0.0 | 0.00 | 0.00 | 2.31 | 99 | 1016.5 | |
| 20260506195618 | 13 | 0.0 | 0.0 | 0.00 | 0.00 | 2.31 | 99 | 1016.5 | |
| 20260506195121 | 13 | 0.0 | 0.0 | 0.00 | 0.00 | 2.31 | 99 | 1016.4 | |
| 20260506194606 | 13 | 0.0 | 0.0 | 0.00 | 0.00 | 2.31 | 99 | 1016.2 | |
| 20260506194100 | 13 | 0.0 | 0.0 | 0.00 | 0.00 | 2.31 | 99 | 1016.1 | |
| 20260506193554 | 13 | 0.0 | 0.0 | 0.00 | 0.00 | 2.31 | 99 | 1016.1 | |
| 20260506193049 | 13 | 1.6 | 4.8 | 0.00 | 0.00 | 2.31 | 99 | 1016.1 | |
| 20260506192542 | 13 | 4.8 | 12.9 | 0.00 | 0.00 | 2.31 | 99 | 1016.0 | |
| 20260506192045 | 13 | 0.0 | 0.0 | 0.00 | 0.00 | 2.31 | 99 | 1016.0 | |
| 20260506191531 | 13 | 0.0 | 0.0 | 0.00 | 0.00 | 2.31 | 99 | 1015.9 | |
| 20260506191025 | 14 | 0.0 | 0.0 | 0.00 | 0.00 | 2.31 | 99 | 1015.9 | |
| 20260506190519 | 14 | 0.0 | 0.0 | 0.00 | 0.00 | 2.31 | 99 | 1015.9 | |
| 20260506190013 | 14 | 0.0 | 0.0 | 0.00 | 0.00 | 2.31 | 99 | 1015.9 | |
| 20260506185506 | 14 | 0.0 | 0.0 | 0.00 | 0.00 | 2.31 | 99 | 1015.8 | |
| 20260506185008 | 15 | 0.0 | 0.0 | 0.00 | 0.00 | 2.31 | 99 | 1015.8 | |
| 20260506184453 | 15 | 0.0 | 0.0 | 0.00 | 0.00 | 2.31 | 99 | 1015.8 | |
| 20260506183947 | 15 | 0.0 | 0.0 | 0.00 | 0.00 | 2.31 | 99 | 1015.8 | |
| 20260506183441 | 15 | 0.0 | 0.0 | 0.00 | 0.00 | 2.31 | 99 | 1015.8 | |
| 20260506182935 | 15 | 0.0 | 0.0 | 0.00 | 0.00 | 2.31 | 99 | 1015.8 | |
| 20260506182429 | 15 | 0.0 | 0.0 | 0.00 | 0.00 | 2.31 | 99 | 1015.8 | |
| 20260506181931 | 15 | 0.0 | 0.0 | 0.00 | 0.00 | 2.31 | 99 | 1015.7 | |
| 20260506181417 | 15 | 0.0 | 0.0 | 0.00 | 0.00 | 2.31 | 99 | 1015.7 | |
| 20260506180911 | 15 | 1.6 | 3.2 | 0.00 | 0.00 | 2.31 | 99 | 1015.6 | |
| 20260506180405 | 15 | 0.0 | 1.6 | 0.00 | 0.00 | 2.31 | 99 | 1015.7 | |
| 20260506175859 | 15 | 0.0 | 0.0 | 0.00 | 0.00 | 2.31 | 99 | 1015.6 | |
| 20260506175352 | 16 | 0.0 | 0.0 | 0.00 | 0.00 | 2.31 | 99 | 1015.5 | |
| 20260506174854 | 16 | 1.6 | 3.2 | 0.00 | 0.00 | 2.31 | 99 | 1015.5 | |
| 20260506174339 | 17 | 0.0 | 1.6 | 0.00 | 0.00 | 2.31 | 99 | 1015.5 | |
| 20260506173834 | 16 | 0.0 | 1.6 | 0.00 | 0.00 | 2.31 | 99 | 1015.5 | |
| 20260506173327 | 16 | 1.6 | 4.8 | 0.00 | 0.00 | 2.31 | 99 | 1015.5 | |
| 20260506172822 | 16 | 1.6 | 3.2 | 0.00 | 0.00 | 2.31 | 99 | 1015.6 | |
| 20260506172316 | 17 | 0.0 | 1.6 | 0.00 | 0.00 | 2.31 | 99 | 1015.5 | |
| 20260506171818 | 17 | 1.6 | 4.8 | 0.00 | 0.00 | 2.31 | 99 | 1015.6 | |
| 20260506171303 | 17 | 3.2 | 8.0 | 0.00 | 0.00 | 2.31 | 99 | 1015.6 | |
| 20260506170757 | 17 | 0.0 | 1.6 | 0.00 | 0.00 | 2.31 | 99 | 1015.5 | |
| 20260506170251 | 18 | 1.6 | 6.4 | 0.00 | 0.00 | 2.31 | 99 | 1015.5 | |
| 20260506165745 | 17 | 1.6 | 4.8 | 0.00 | 0.00 | 2.31 | 99 | 1015.5 | |
| 20260506165239 | 17 | 3.2 | 8.0 | 0.00 | 0.00 | 2.31 | 99 | 1015.5 | |
| 20260506164741 | 17 | 3.2 | 8.0 | 0.00 | 0.00 | 2.31 | 99 | 1015.5 | |
| 20260506164226 | 18 | 1.6 | 4.8 | 0.00 | 0.00 | 2.31 | 99 | 1015.5 | |
| 20260506163720 | 18 | 1.6 | 4.8 | 0.00 | 0.00 | 2.31 | 99 | 1015.4 | |
| 20260506163214 | 18 | 1.6 | 4.8 | 0.00 | 0.00 | 2.31 | 99 | 1015.4 | |
| 20260506162708 | 18 | 1.6 | 6.4 | 0.00 | 0.00 | 2.31 | 99 | 1015.3 | |
| 20260506162202 | 18 | 1.6 | 3.2 | 0.00 | 0.00 | 2.31 | 99 | 1015.3 | |
| 20260506161704 | 18 | 1.6 | 4.8 | 0.00 | 0.00 | 2.31 | 99 | 1015.4 | |
| 20260506161149 | 17 | 1.6 | 4.8 | 0.00 | 0.00 | 2.31 | 99 | 1015.4 | |
| 20260506160643 | 18 | 3.2 | 8.0 | 0.00 | 0.00 | 2.31 | 99 | 1015.4 | |
| 20260506160137 | 18 | 1.6 | 6.4 | 0.00 | 0.00 | 2.31 | 99 | 1015.4 | |
| 20260506155631 | 18 | 1.6 | 6.4 | 0.00 | 0.00 | 2.31 | 99 | 1015.4 | |
| 20260506155125 | 18 | 3.2 | 8.0 | 0.00 | 0.00 | 2.31 | 99 | 1015.4 | |
| 20260506154627 | 18 | 3.2 | 9.7 | 0.00 | 0.00 | 2.31 | 99 | 1015.4 | |
| 20260506154113 | 17 | 3.2 | 9.7 | 0.00 | 0.00 | 2.31 | 99 | 1015.4 | |
| 20260506153607 | 17 | 3.2 | 11.3 | 0.00 | 0.00 | 2.31 | 99 | 1015.5 | |
| 20260506153101 | 18 | 3.2 | 9.7 | 0.00 | 0.00 | 2.31 | 99 | 1015.5 | |
| 20260506152555 | 19 | 3.2 | 9.7 | 0.00 | 0.00 | 2.31 | 99 | 1015.6 | |
| 20260506152048 | 18 | 3.2 | 9.7 | 0.00 | 0.00 | 2.31 | 99 | 1015.5 | |
| 20260506151551 | 17 | 3.2 | 8.0 | 0.00 | 0.00 | 2.31 | 99 | 1015.5 | |
| 20260506151036 | 17 | 1.6 | 6.4 | 0.00 | 0.00 | 2.31 | 99 | 1015.6 | |
| 20260506150530 | 17 | 3.2 | 9.7 | 0.00 | 0.00 | 2.31 | 99 | 1015.6 | |
| 20260506150024 | 18 | 3.2 | 8.0 | 0.00 | 0.00 | 2.31 | 99 | 1015.6 | |
| 20260506145517 | 18 | 3.2 | 11.3 | 0.00 | 0.00 | 2.31 | 99 | 1015.7 | |
| 20260506145011 | 18 | 1.6 | 4.8 | 0.00 | 0.00 | 2.31 | 99 | 1015.7 | |
| 20260506144513 | 17 | 3.2 | 8.0 | 0.00 | 0.00 | 2.31 | 99 | 1015.6 | |
| 20260506143959 | 17 | 4.8 | 12.9 | 0.00 | 0.00 | 2.31 | 99 | 1015.7 | |
| 20260506143453 | 18 | 3.2 | 9.7 | 0.00 | 0.00 | 2.31 | 99 | 1015.7 | |
| 20260506142947 | 18 | 1.6 | 4.8 | 0.00 | 0.00 | 2.31 | 99 | 1015.7 | |
| 20260506142441 | 17 | 1.6 | 4.8 | 0.00 | 0.00 | 2.31 | 99 | 1015.7 | |
| 20260506141935 | 17 | 3.2 | 8.0 | 0.00 | 0.00 | 2.31 | 99 | 1015.6 | |
| 20260506141437 | 17 | 1.6 | 6.4 | 0.00 | 0.00 | 2.31 | 99 | 1015.6 | |
| 20260506140922 | 17 | 3.2 | 9.7 | 0.00 | 0.00 | 2.31 | 99 | 1015.7 | |
| 20260506140416 | 17 | 3.2 | 11.3 | 0.00 | 0.00 | 2.31 | 99 | 1015.7 | |
| 20260506135911 | 18 | 1.6 | 6.4 | 0.00 | 0.00 | 2.31 | 99 | 1015.6 | |
| 20260506135404 | 18 | 1.6 | 6.4 | 0.00 | 0.00 | 2.31 | 99 | 1015.6 | |
| 20260506134858 | 18 | 3.2 | 8.0 | 0.00 | 0.00 | 2.31 | 99 | 1015.6 | |
| 20260506134400 | 18 | 3.2 | 11.3 | 0.00 | 0.00 | 2.31 | 99 | 1015.6 | |
| 20260506133846 | 17 | 3.2 | 8.0 | 0.00 | 0.00 | 2.31 | 99 | 1015.6 | |
| 20260506133340 | 17 | 4.8 | 12.9 | 0.00 | 0.00 | 2.31 | 99 | 1015.5 | |
| 20260506132835 | 17 | 3.2 | 8.0 | 0.00 | 0.00 | 2.31 | 99 | 1015.5 | |
| 20260506132329 | 17 | 3.2 | 8.0 | 0.00 | 0.00 | 2.31 | 99 | 1015.5 | |
| 20260506131823 | 18 | 3.2 | 11.3 | 0.00 | 0.00 | 2.31 | 99 | 1015.4 | |
| 20260506131326 | 18 | 3.2 | 11.3 | 0.00 | 0.00 | 2.31 | 99 | 1015.3 | |
| 20260506130812 | 18 | 3.2 | 9.7 | 0.00 | 0.00 | 2.31 | 99 | 1015.3 | |
| 20260506130306 | 18 | 3.2 | 9.7 | 0.00 | 0.00 | 2.31 | 99 | 1015.2 | |
| 20260506125759 | 17 | 3.2 | 8.0 | 0.00 | 0.00 | 2.31 | 99 | 1015.2 | |
| 20260506125253 | 17 | 0.0 | 1.6 | 0.00 | 0.00 | 2.31 | 99 | 1015.2 | |
| 20260506124747 | 16 | 1.6 | 3.2 | 0.00 | 0.00 | 2.31 | 99 | 1015.2 | |
| 20260506124250 | 16 | 1.6 | 6.4 | 0.00 | 0.00 | 2.31 | 99 | 1015.2 | |
| 20260506123735 | 16 | 1.6 | 4.8 | 0.00 | 0.00 | 2.31 | 99 | 1015.2 | |
| 20260506123229 | 16 | 1.6 | 6.4 | 0.00 | 0.00 | 2.31 | 99 | 1015.2 | |
| 20260506122723 | 16 | 3.2 | 9.7 | 0.00 | 0.00 | 2.31 | 99 | 1015.2 | |
| 20260506122217 | 16 | 3.2 | 8.0 | 0.00 | 0.00 | 2.31 | 99 | 1015.1 | |
| 20260506121711 | 16 | 3.2 | 8.0 | 0.00 | 0.00 | 2.31 | 99 | 1015.1 | |
| 20260506121213 | 18 | 3.2 | 11.3 | 0.00 | 0.00 | 2.31 | 99 | 1015.1 | |
| 20260506120658 | 18 | 1.6 | 6.4 | 0.00 | 0.00 | 2.31 | 99 | 1015.0 | |
| 20260506120152 | 17 | 3.2 | 9.7 | 0.00 | 0.00 | 2.31 | 99 | 1014.9 | |
| 20260506115645 | 17 | 1.6 | 4.8 | 0.00 | 0.00 | 2.31 | 99 | 1014.9 | |
| 20260506115139 | 16 | 1.6 | 3.2 | 0.00 | 0.00 | 2.31 | 99 | 1014.9 | |
| 20260506114634 | 16 | 3.2 | 8.0 | 0.00 | 0.00 | 2.31 | 99 | 1014.9 | |
| 20260506114136 | 16 | 3.2 | 11.3 | 0.00 | 0.00 | 2.31 | 99 | 1014.9 | |
| 20260506113621 | 17 | 1.6 | 4.8 | 0.00 | 0.00 | 2.31 | 99 | 1015.0 | |
| 20260506113115 | 17 | 3.2 | 8.0 | 0.00 | 0.00 | 2.31 | 99 | 1015.0 | |
| 20260506112609 | 18 | 1.6 | 6.4 | 0.00 | 0.00 | 2.31 | 99 | 1015.0 | |
| 20260506112104 | 20 | 3.2 | 8.0 | 0.00 | 0.00 | 2.31 | 99 | 1014.9 | |
| 20260506111558 | 21 | 1.6 | 6.4 | 0.00 | 0.00 | 2.31 | 99 | 1014.9 | |
| 20260506111100 | 22 | 3.2 | 11.3 | 0.00 | 0.00 | 2.31 | 99 | 1014.9 | |
| 20260506110545 | 21 | 3.2 | 8.0 | 0.00 | 0.00 | 2.31 | 99 | 1014.9 | |
| 20260506110040 | 20 | 1.6 | 4.8 | 0.00 | 0.00 | 2.31 | 99 | 1014.8 | |
| 20260506105533 | 19 | 1.6 | 4.8 | 0.05 | 0.00 | 2.31 | 99 | 1014.8 | |
| 20260506105027 | 18 | 1.6 | 3.2 | 0.05 | 0.00 | 2.31 | 99 | 1014.8 | |
| 20260506104521 | 18 | 1.6 | 6.4 | 0.05 | 0.00 | 2.31 | 99 | 1014.8 | |
| 20260506104023 | 16 | 1.6 | 3.2 | 0.05 | 0.00 | 2.31 | 99 | 1014.8 | |
| 20260506103509 | 15 | 0.0 | 1.6 | 0.05 | 0.00 | 2.31 | 99 | 1014.8 | |
| 20260506103003 | 15 | 1.6 | 3.2 | 0.05 | 0.00 | 2.31 | 99 | 1014.8 | |
| 20260506102457 | 15 | 1.6 | 6.4 | 0.05 | 0.00 | 2.31 | 99 | 1014.9 | |
| 20260506101951 | 14 | 1.6 | 3.2 | 0.05 | 0.00 | 2.31 | 99 | 1014.9 | |
| 20260506101445 | 13 | 0.0 | 1.6 | 0.05 | 0.00 | 2.31 | 99 | 1014.9 | |
| 20260506100948 | 12 | 0.0 | 1.6 | 0.05 | 0.00 | 2.31 | 99 | 1014.9 | |
| 20260506100433 | 13 | 3.2 | 8.0 | 0.05 | 0.00 | 2.31 | 99 | 1014.9 | |
| 20260506095927 | 12 | 3.2 | 9.7 | 0.00 | 0.00 | 2.26 | 99 | 1014.9 | |
| 20260506095420 | 12 | 3.2 | 9.7 | 0.46 | 0.00 | 2.21 | 99 | 1014.8 | |
| 20260506094914 | 12 | 3.2 | 8.0 | 0.46 | 0.00 | 2.21 | 99 | 1014.8 | |
| 20260506094409 | 12 | 1.6 | 6.4 | 0.46 | 0.00 | 2.21 | 99 | 1014.6 | |
| 20260506093357 | 12 | 1.6 | 3.2 | 0.41 | 0.00 | 2.13 | 99 | 1014.5 | |
| 20260506092851 | 12 | 1.6 | 6.4 | 0.33 | 0.00 | 2.08 | 99 | 1014.4 | |
| 20260506092345 | 12 | 3.2 | 8.0 | 0.28 | 0.00 | 2.03 | 99 | 1014.5 | |
| 20260506091839 | 12 | 1.6 | 6.4 | 0.15 | 0.00 | 1.91 | 99 | 1014.3 | |
| 20260506091333 | 12 | 1.6 | 6.4 | 0.00 | 0.00 | 1.73 | 99 | 1014.3 | |
| 20260506090835 | 12 | 1.6 | 6.4 | 0.00 | 0.00 | 1.73 | 99 | 1014.3 | |
| 20260506090320 | 12 | 1.6 | 6.4 | 0.00 | 0.00 | 1.73 | 99 | 1014.3 | |
| 20260506085813 | 12 | 1.6 | 6.4 | 0.33 | 0.00 | 1.73 | 99 | 1014.2 | |
| 20260506085307 | 12 | 1.6 | 4.8 | 0.28 | 0.00 | 1.68 | 99 | 1014.2 | |
| 20260506084802 | 12 | 1.6 | 4.8 | 0.28 | 0.00 | 1.68 | 99 | 1014.2 | |
| 20260506084256 | 12 | 1.6 | 4.8 | 0.28 | 0.00 | 1.68 | 99 | 1014.2 | |
| 20260506083758 | 12 | 1.6 | 6.4 | 0.23 | 0.00 | 1.63 | 99 | 1014.1 | |
| 20260506083243 | 13 | 3.2 | 11.3 | 0.15 | 0.00 | 1.55 | 99 | 1014.0 | |
| 20260506082737 | 13 | 1.6 | 3.2 | 0.05 | 0.00 | 1.45 | 99 | 1014.0 | |
| 20260506082232 | 13 | 1.6 | 4.8 | 0.00 | 0.00 | 1.37 | 99 | 1014.0 | |
| 20260506081726 | 13 | 1.6 | 4.8 | 0.00 | 0.00 | 1.37 | 99 | 1014.1 | |
| 20260506081220 | 13 | 1.6 | 3.2 | 0.00 | 0.00 | 1.37 | 99 | 1014.1 | |
| 20260506080723 | 12 | 1.6 | 3.2 | 0.00 | 0.00 | 1.37 | 99 | 1014.1 |